Weather History for Providence, RI

Change the Weather History Date:

Sunday, September 15, 2013

  Actual Average Record
Temperature  
Mean Temperature 60 °F 65 °F  
Max Temperature 71 °F 75 °F 90 °F (1915)
Min Temperature 49 °F 56 °F 38 °F (1975)
Degree Days  
Heating Degree Days 5 2  
Month to date heating degree days 22 21  
Since 1 July heating degree days 22 30  
Cooling Degree Days 0 3  
Month to date cooling degree days 63 58  
Year to date cooling degree days 885 714  
Growing Degree Days 10 (Base 50)    
Moisture  
Dew Point 49 °F    
Average Humidity 69    
Maximum Humidity 93    
Minimum Humidity 45    
Precipitation  
Precipitation 0.00 in 0.13 in 2.66 in (2005)
Month to date precipitation 4.24 1.90  
Year to date precipitation 35.05 32.50  
Snow  
Snow 0.00 in 0.00 in 0.00 in (2002)
Month to date snowfall 0.0 0.0  
Since 1 July snowfall 0.0 0.0  
Since 1 September snowfall 0.0 0.0  
Snow Depth 0.00 in    
Sea Level Pressure  
Sea Level Pressure 30.12 in    
Wind  
Wind Speed 4 mph (SW)    
Max Wind Speed 13 mph    
Max Gust Speed 15 mph    
Visibility 10 miles    
Events      
T = Trace of Precipitation, MM = Missing Value Source: NWS Daily Summary

Daily Weather History Graph

Daily Weather History Graph

Search for Another Location

Airport:

Trip Planner

Search our weather history database for the weather conditions in past years. The results will help you decide how hot, cold, wet, or windy it might be!

Date:

Astronomy

Sep. 15, 2013 Rise Set
Actual Time 6:26 AM EDT 6:54 PM EDT
Civil Twilight 5:58 AM EDT 7:22 PM EDT
Nautical Twilight 5:25 AM EDT 7:55 PM EDT
Astronomical Twilight 4:51 AM EDT 8:29 PM EDT
Moon 4:22 PM EDT (9/15) 1:57 AM EDT (9/15)
Length of Visible Light 13h 24m
Length of Day
12h 28m
Waxing Gibbous, 82% of the Moon is Illuminated
Sep 15
Waxing Gibbous
Sep 19
Full
Sep 26
Last Quarter
Oct 4
New
Oct 11
First Quarter

Hourly Weather History & Observations

Time (EDT) Temp. Dew Point Humidity Pressure Visibility Wind Dir Wind Speed Gust Speed Precip Events Conditions
12:51 AM 54.0 °F 50.0 °F 86% 30.09 in 10.0 mi Calm Calm - N/A   Clear
1:51 AM 53.1 °F 48.9 °F 86% 30.09 in 10.0 mi Calm Calm - N/A   Clear
2:51 AM 52.0 °F 48.9 °F 89% 30.10 in 10.0 mi West 3.5 mph - N/A   Clear
3:51 AM 51.1 °F 48.0 °F 89% 30.11 in 10.0 mi West 4.6 mph - N/A   Clear
4:51 AM 50.0 °F 48.0 °F 93% 30.12 in 10.0 mi West 5.8 mph - N/A   Clear
5:51 AM 50.0 °F 46.9 °F 89% 30.14 in 10.0 mi Calm Calm - N/A   Clear
6:51 AM 50.0 °F 46.9 °F 89% 30.16 in 10.0 mi West 3.5 mph - N/A   Partly Cloudy
7:51 AM 55.0 °F 48.0 °F 77% 30.17 in 10.0 mi Calm Calm - N/A   Partly Cloudy
8:51 AM 59.0 °F 48.9 °F 69% 30.17 in 10.0 mi Calm Calm - N/A   Partly Cloudy
9:51 AM 61.0 °F 50.0 °F 67% 30.18 in 10.0 mi Calm Calm - N/A   Scattered Clouds
10:51 AM 64.0 °F 50.0 °F 60% 30.18 in 10.0 mi Calm Calm - N/A   Partly Cloudy
11:51 AM 66.0 °F 50.0 °F 56% 30.17 in 10.0 mi West 5.8 mph - N/A   Scattered Clouds
12:51 PM 68.0 °F 48.9 °F 50% 30.16 in 10.0 mi Variable 4.6 mph - N/A   Scattered Clouds
1:51 PM 70.0 °F 51.1 °F 51% 30.13 in 10.0 mi South 11.5 mph - N/A   Scattered Clouds
2:51 PM 66.9 °F 52.0 °F 59% 30.12 in 10.0 mi SE 10.4 mph - N/A   Mostly Cloudy
3:51 PM 70.0 °F 48.9 °F 47% 30.11 in 10.0 mi West 6.9 mph - N/A   Mostly Cloudy
4:51 PM 68.0 °F 46.9 °F 47% 30.09 in 10.0 mi WSW 10.4 mph - N/A   Mostly Cloudy
5:51 PM 66.9 °F 46.9 °F 49% 30.09 in 10.0 mi SW 10.4 mph - N/A   Mostly Cloudy
6:51 PM 61.0 °F 50.0 °F 67% 30.09 in 10.0 mi SSW 4.6 mph - N/A   Mostly Cloudy
7:51 PM 59.0 °F 52.0 °F 78% 30.10 in 10.0 mi SW 5.8 mph - N/A   Mostly Cloudy
8:51 PM 57.0 °F 50.0 °F 77% 30.10 in 10.0 mi SW 5.8 mph - N/A   Mostly Cloudy
9:51 PM 57.0 °F 48.9 °F 74% 30.10 in 10.0 mi SW 4.6 mph - N/A   Mostly Cloudy
10:51 PM 55.9 °F 48.9 °F 77% 30.10 in 10.0 mi WSW 4.6 mph - N/A   Mostly Cloudy
11:51 PM 57.0 °F 50.0 °F 77% 30.09 in 10.0 mi Calm Calm - N/A   Mostly Cloudy